Regional Weather Roundup
Issued by NWS New Orleans/Baton Rouge, LA

Home | Current Version | Previous Version | Text Only | Print | Product List | Glossary On
Versions: 1 2 3 4 5 6 7 8 9 10 11 12 13 14 15 16 17 18 19 20 21 22 23 24 25 26 27
000
ASUS44 KLIX 221912
RWRLIX
NEW ORLEANS REGIONAL WEATHER ROUNDUP
NATIONAL WEATHER SERVICE NEW ORLEANS LA
100 PM CST WED FEB 22 2017

NOTE: "FAIR" INDICATES FEW OR NO CLOUDS BELOW 12,000 FEET WITH NO
      SIGNIFICANT WEATHER AND/OR OBSTRUCTIONS TO VISIBILITY.
      SKY/WX - SKY CONDITION AND SIGNIFICANT WEATHER.
      TMP - AIR TEMPERATURE.     DP    - DEWPOINT TEMPERATURE.
      RH  - RELATIVE HUMIDITY.   PRES  - PRESSURE.
      HI  - HEAT INDEX.          WCI   - WIND CHILL INDEX.

*  THESE STATIONS ARE NOT NWS OR FAA STATIONS AND ARE NOT UNDER
   NWS QUALITY CONTROL.

LAZ038-040-048-061>063-065>067-069-222000-
SOUTHEAST LOUISIANA

CITY           SKY/WX    TMP DP  RH WIND       PRES   REMARKS
N.O. AUDUBON   NOT AVBL
N.O. INTL ARPT MOSUNNY   71  55  56 NW5       29.81F
N.O. LAKEFRONT SUNNY     68  60  75 W9        29.81F
N.O. DOWNTOWN*   N/A     72  54  53 VRB6      29.82F
RESERVE*       MOCLDY    74  55  51 NW5       29.82F
SLIDELL        SUNNY     74  54  49 N10G18    29.79F
BATON ROUGE    PTSUNNY   73  54  51 N7        29.83F
BOOTHVILLE     SUNNY     68  59  73 N8        29.81F
BELLE CHASSE   MOSUNNY   73  54  51 VRB7G17   29.80F
BOGALUSA*        N/A     75  54  49 N9G16     29.83F
GALLIANO*      PTCLDY    73  53  49 NW13      29.81F
NEW ROADS*       N/A     69  57  65 NW8       29.85F
GONZALES*        N/A     73  54  51 N9G16     29.81F
HAMMOND*       PTSUNNY   75  48  38 NE6       29.82F
HOUMA*         MOSUNNY   72  55  56 N6        29.82F
PORT FOURCHON* CLEAR     72  54  53 N10       29.82F

$$

MSZ070-080>082-222000-
SOUTHERN MISSISSIPPI

CITY           SKY/WX    TMP DP  RH WIND       PRES   REMARKS
MCCOMB         PTSUNNY   71  52  50 NW9       29.83F
GULFPORT       MOSUNNY   72  56  57 N12       29.77F
BILOXI         MOSUNNY   71  57  61 N14       29.78F
PASCAGOULA     PTSUNNY   69  54  58 N14G21    29.78S
STENNIS ARPT*  PTSUNNY   70  48  46 N9        29.80F

$$

COASTAL OBSERVATIONS
LAKE AND NEARSHORE STATIONS

STATION/POSITION TIME  TEMP    WIND        PRES    WAVE
                       AIR SEA DIR/SP/G            HT/PER
                 (UTC) (F)     (DEG/KT/KT) (MB)    (FT/S)
PASCAGOULA       1848   68     350/ 12/ 19 1007.7
WAVELAND YACHT   1842   69 67   10/ 13/ 15 1008.7
GRAND ISLE       1848   70 68  340/  6/  9 1009.8
SOUTHWEST PASS   1848          350/ 10/ 13   N/A
NEW CANAL        1848   68 66  300/  2/  5 1008.9
SHELL BEACH      1842   67 68  320/ 12/ 15 1009.5

OFFSHORE STATIONS

STATION/POSITION TIME  TEMP    WIND        PRES    WAVE
                       AIR SEA DIR/SP/G            HT/PER
                 (UTC) (F)     (DEG/KT/KT) (MB)    (FT/S)

$$





USA.gov is the U.S. government's official web portal to all federal, state and local government web resources and services.